Satellite-Ground Cal/Val Site Overpasses Predictions

Prediction of Satellite NPP Overpassing Cal/Val Site: Antarctic Dome C

Ground Cal/Val Site Location: Latitude: -75.10, Longitude: 123.35; Satellite-Ground Site NADIR distance within 100 km.

Table of predicted overpasses for the next 14.0 days since TLE Epoch: 8/31/2018
Interval Starting Time Ending Time Minimum Distance Time Minimum Distance (km)
1 09/02/2018 15:01:31 09/02/2018 15:01:54 09/02/2018 15:01:42 58.56
2 09/03/2018 14:42:41 09/03/2018 14:43:07 09/03/2018 14:42:54 50.54
3 09/04/2018 07:44:23 09/04/2018 07:44:44 09/04/2018 07:44:33 68.93
4 09/05/2018 07:25:31 09/05/2018 07:25:58 09/05/2018 07:25:44 39.04
5 09/07/2018 15:07:59 09/07/2018 15:08:06 09/07/2018 15:08:02 96.38
6 09/08/2018 14:48:59 09/08/2018 14:49:28 09/08/2018 14:49:13 14.97
7 09/10/2018 07:31:49 09/10/2018 07:32:18 09/10/2018 07:32:04 3.08


NCC Satellite Cal/Val Overpasses Prediction Service
